Location: Fxbg
(38.3018°N, 77.4708°W)
Time: 12:21:15
(UTC-04:00)

ISS - Visible Passes

Search period start: 21 August 2018 00:00
Search period end: 31 August 2018 00:00
Orbit: 401 x 409 km, 51.6° (Epoch: 22 August)

Date Brightness Start Highest point End Pass type
(mag) Time Alt. Az. Time Alt. Az. Time Alt. Az.
27 Aug -0.9 05:32:37 10° SSE 05:33:51 12° SE 05:35:06 10° ESE visible
29 Aug -2.3 05:23:48 15° S 05:25:59 30° SE 05:28:53 10° ENE visible
30 Aug -1.3 04:34:10 15° SE 04:34:10 15° SE 04:36:05 10° E visible
30 Aug -3.4 06:07:07 10° WSW 06:10:17 48° NW 06:13:28 10° NE visible
